Location: *
(37.5724°S, 58.0067°E)
Time: 10:36:10
(UTC+00:00)

BREEZE-M DEB (TANK) - Pass Details

Date: 26 September 2020
Orbit: 314 x 15730 km, 49.6° (Epoch: 29 October)

Event Time Altitude Azimuth Distance (km) Brightness Sun altitude
Rises 15:31:58 0° 299° (WNW) 2,506 6.4 -17.2°
Reaches altitude 10° 15:33:18 10° 297° (WNW) 1,893 5.7 -17.4°
Maximum altitude 15:37:04 75° 210° (SSW) 1,050 3.7 -18.1°
Drops below altitude 10° 15:51:10 10° 124° (SE) 6,587 7.4 -20.8°
Sets 16:01:15 0° 121° (ESE) 10,085 8.4 -22.7°
